This demonstration page uses our WeatherBlox Daily Observations layout. Learn more.

Left ArrowRight Arrow

Hourly Observations for December 9, 2020

Temp ( °F °C ) Dew Point ( °F °C ) Humidity (%) Winds ( mph kmh ) Pressure ( in mb ) Visibility ( mi km ) Precip ( " mm )
12:51 am 00:51 Clear 30 -1.1 17 -8.3 58 58 W 5 7 29.87 1011 10 16 0.00 0.00
1:51 am 01:51 Clear 30 -1.1 18 -7.8 61 61 WNW 7 11 29.86 1011 10 16 0.00 0.00
2:51 am 02:51 Clear 27 -2.8 18 -7.8 69 69 SSW 5 7 29.86 1011 10 16 0.00 0.00
3:51 am 03:51 Clear 29 -1.7 19 -7.2 66 66 SSW 7 11 29.84 1010 10 16 0.00 0.00
4:51 am 04:51 Clear 29 -1.7 20 -6.7 69 69 SW 5 7 29.84 1010 10 16 0.00 0.00
5:51 am 05:51 Clear 30 -1.1 20 -6.7 66 66 S 6 9 29.85 1011 10 16 0.00 0.00
6:51 am 06:51 Clear 30 -1.1 21 -6.1 69 69 S 7 11 29.85 1011 10 16 0.00 0.00
7:51 am 07:51 Mostly Sunny 31 -0.6 22 -5.6 69 69 SSW 9 15 29.84 1010 10 16 0.00 0.00
8:51 am 08:51 Sunny 33 0.6 23 -5 66 66 SW 10 17 29.84 1011 10 16 0.00 0.00
9:51 am 09:51 Mostly Sunny 34 1.1 23 -5 64 64 SW 10 17 29.83 1010 10 16 0.00 0.00
10:51 am 10:51 Mostly Cloudy 36 2.2 23 -5 59 59 SW 12 19 29.81 1010 10 16 0.00 0.00
11:51 am 11:51 Cloudy with Light Snow 35 1.7 25 -3.9 67 67 WSW 14 22 29.78 1008 6 10 0.00 0.00
12:24 pm 12:24 Cloudy with Light Snow 33 0.6 26 -3.3 75 75 WSW 13 20 29.78 1009 1 2 0.00 0.00
12:33 pm 12:33 Cloudy with Light Snow 33 0.6 27 -2.8 78 78 WSW 14 22 29.78 1009 1 1 0.00 0.00
12:42 pm 12:42 Mostly Cloudy with Light Snow 32 0 28 -2.2 85 85 SW 12 19 29.77 1008 1 1 0.00 0.00
12:51 pm 12:51 Mostly Cloudy with Light Snow 32 0 28 -2.2 85 85 SW 12 19 29.77 1008 1 1 0.00 0.00
1:51 pm 13:51 Mostly Cloudy with Light Snow 32 0 29 -1.7 88 88 SW 10 17 29.75 1007 1 1 0.02 0.51
1:53 pm 13:53 Mostly Cloudy with Light Snow 32 0 29 -1.7 88 88 SW 10 17 29.75 1007 2 2 0.00 0.00
2:10 pm 14:10 Mostly Cloudy with Light Snow 33 0.6 29 -1.7 85 85 WSW 12 19 29.74 1007 2 3 0.00 0.00
2:25 pm 14:25 Mostly Cloudy with Mist and Fog 33 0.6 29 -1.7 85 85 WSW 10 17 29.74 1007 4 6 0.00 0.00
2:51 pm 14:51 Mostly Cloudy with Light Snow 34 1.1 29 -1.7 82 82 WSW 12 19 29.73 1007 6 10 0.00 0.00
2:58 pm 14:58 Cloudy with Light Snow 34 1.1 29 -1.7 82 82 WSW 10 17 29.74 1007 9 14 0.00 0.00
3:51 pm 15:51 Cloudy 34 1.1 28 -2.2 79 79 SW 8 13 29.75 1007 8 13 0.00 0.00
4:28 pm 16:28 Mostly Cloudy 33 0.6 28 -2.2 82 82 WSW 10 17 29.76 1008 9 14 0.00 0.00
4:51 pm 16:51 Cloudy with Mist and Fog 33 0.6 28 -2.2 82 82 SW 8 13 29.76 1008 6 10 0.00 0.00
5:51 pm 17:51 Cloudy with Mist and Fog 34 1.1 28 -2.2 79 79 WSW 7 11 29.78 1008 6 10 0.00 0.00
6:51 pm 18:51 Cloudy with Mist and Fog 35 1.7 29 -1.7 78 78 WSW 7 11 29.79 1009 6 10 0.00 0.00
7:51 pm 19:51 Cloudy with Mist and Fog 35 1.7 29 -1.7 78 78 W 7 11 29.80 1009 8 13 0.00 0.00
8:51 pm 20:51 Mostly Cloudy with Mist and Fog 34 1.1 28 -2.2 79 79 S 5 7 29.80 1009 8 13 0.00 0.00
9:51 pm 21:51 Cloudy 34 1.1 29 -1.7 82 82 SSW 5 7 29.81 1010 8 13 0.00 0.00
10:51 pm 22:51 Mostly Clear 33 0.6 28 -2.2 82 82 SW 5 7 29.82 1010 7 11 0.00 0.00
11:51 pm 23:51 Mostly Cloudy 34 1.1 29 -1.7 82 82 SSW 5 7 29.82 1010 7 11 0.00 0.00

Powered by AerisWeather